User: anonymous   Login
Location: Unspecified
(0.0000°N, 0.0000°E)
Time: 03:39:45
(UTC+00:00)
Language:

NAVSTAR 64 (USA 206) - Orbit

View from above orbital plane
View from above orbital plane
View from above satellite
View from above satellite

Ground track
Ground track

The orbit data is extracted from the following two-line orbital elements,

1 35752U 09043A   16122.59890806  .00000046  00000-0  00000+0 0  9994
2 35752  54.2227 176.2033 0044839  23.4855 302.8455  2.00550696 49152
Epoch (UTC): 01 May 2016 14:22:25
Eccentricity: 0.0044839
inclination: 54.2227°
perigee height: 20064 km
apogee height: 20302 km
right ascension of ascending node: 176.2033°
argument of perigee: 23.4855°
revolutions per day: 2.00550696
mean anomaly at epoch: 302.8455°
orbit number at epoch: 4915

The dashed part of the orbit path shows where the satellite is in the earth's shadow,  

DLR